• In Netherlands
  • List of Countries
  • For 7 days
  • Water Temperature
  • Satellite Maps
  • Weather Map
  • Weather Widgets
  • user-avatar
    Login

    Hourly Weather Kapan

    Today, 26 May, Friday

    Time Temperature Precipitation Wind Pressure Humidity
    00:00 +12°C° 0 mm 1 mps 684 mmHg 88%
    01:00 +11°C° 0 mm 1 mps 684 mmHg 89%
    02:00 +11°C° 0 mm 1 mps 684 mmHg 90%
    03:00 +11°C° 0 mm 1 mps 683 mmHg 92%
    04:00 +13°C° 0 mm 1 mps 684 mmHg 87%
    05:00 +14°C° 0 mm 1 mps 684 mmHg 83%
    06:00 +16°C° 0 mm 1 mps 685 mmHg 79%
    07:00 +19°C° 0 mm 1 mps 685 mmHg 70%
    08:00 +20°C° 0 mm 1 mps 685 mmHg 61%
    09:00 +21°C° 0 mm 2 mps 686 mmHg 52%
    10:00 +23°C° 0 mm 2 mps 685 mmHg 48%
    11:00 +24°C° 0 mm 2 mps 685 mmHg 44%
    12:00 +25°C° 0 mm 2 mps 685 mmHg 39%
    13:00 +26°C° 0 mm 3 mps 685 mmHg 39%
    14:00 +26°C° 0 mm 3 mps 684 mmHg 38%
    15:00 +26°C° 0 mm 3 mps 684 mmHg 38%
    16:00 +25°C° 0 mm 2 mps 683 mmHg 44%
    17:00 +24°C° 0 mm 2 mps 683 mmHg 50%
    18:00 +23°C° 0 mm 2 mps 683 mmHg 57%
    19:00 +20°C° 0 mm 1 mps 682 mmHg 67%
    20:00 +18°C° 0 mm 1 mps 682 mmHg 77%
    21:00 +14°C° 0 mm 1 mps 682 mmHg 87%
    22:00 +14°C° 0 mm 1 mps 682 mmHg 87%
    23:00 +13°C° 0 mm 1 mps 682 mmHg 88%

    Tomorrow, 27 May, Saturday

    Time Temperature Precipitation Wind Pressure Humidity
    00:00 +13°C° 0 mm 1 mps 682 mmHg 89%
    01:00 +13°C° 0 mm 1 mps 682 mmHg 87%
    02:00 +12°C° 0 mm 0 mps 682 mmHg 85%
    03:00 +12°C° 0 mm 0 mps 682 mmHg 83%
    04:00 +13°C° 0 mm 0 mps 682 mmHg 79%
    05:00 +15°C° 0 mm 0 mps 683 mmHg 74%
    06:00 +16°C° 0 mm 0 mps 683 mmHg 70%
    07:00 +20°C° 0 mm 1 mps 683 mmHg 59%
    08:00 +23°C° 0 mm 1 mps 684 mmHg 49%
    09:00 +25°C° 0 mm 1 mps 684 mmHg 39%
    10:00 +26°C° 0 mm 2 mps 683 mmHg 36%
    11:00 +28°C° 0 mm 2 mps 683 mmHg 32%
    12:00 +29°C° 0 mm 3 mps 683 mmHg 29%
    13:00 +29°C° 0 mm 3 mps 682 mmHg 29%
    14:00 +29°C° 0 mm 3 mps 682 mmHg 30%
    15:00 +29°C° 0 mm 4 mps 681 mmHg 30%
    16:00 +28°C° 0.1 mm 3 mps 681 mmHg 37%
    17:00 +26°C° 0.1 mm 3 mps 681 mmHg 43%
    18:00 +25°C° 0.1 mm 2 mps 680 mmHg 50%
    19:00 +21°C° 0 mm 2 mps 680 mmHg 61%
    20:00 +19°C° 0 mm 1 mps 680 mmHg 73%
    21:00 +16°C° 0 mm 1 mps 680 mmHg 84%
    22:00 +15°C° 0 mm 1 mps 680 mmHg 85%
    23:00 +15°C° 0 mm 1 mps 680 mmHg 86%

    Day after tomorrow, 28 May, Sunday

    Time Temperature Precipitation Wind Pressure Humidity
    00:00 +15°C° 0 mm 1 mps 681 mmHg 87%
    01:00 +14°C° 0 mm 1 mps 681 mmHg 84%
    02:00 +14°C° 0 mm 1 mps 681 mmHg 81%
    03:00 +14°C° 0 mm 1 mps 681 mmHg 78%
    04:00 +16°C° 0 mm 1 mps 681 mmHg 72%
    05:00 +18°C° 0 mm 1 mps 682 mmHg 65%
    06:00 +19°C° 0 mm 1 mps 683 mmHg 59%
    07:00 +22°C° 0 mm 1 mps 683 mmHg 50%
    08:00 +24°C° 0 mm 2 mps 684 mmHg 40%
    09:00 +26°C° 0 mm 2 mps 684 mmHg 31%
    10:00 +28°C° 0 mm 2 mps 684 mmHg 28%
    11:00 +29°C° 0 mm 3 mps 684 mmHg 25%
    12:00 +30°C° 0 mm 3 mps 684 mmHg 23%
    13:00 +30°C° 0 mm 3 mps 683 mmHg 22%
    14:00 +30°C° 0 mm 3 mps 683 mmHg 22%
    15:00 +30°C° 0 mm 3 mps 682 mmHg 22%
    16:00 +29°C° 0 mm 3 mps 682 mmHg 26%
    17:00 +28°C° 0 mm 3 mps 682 mmHg 30%
    18:00 +26°C° 0 mm 3 mps 682 mmHg 35%
    19:00 +23°C° 0 mm 2 mps 682 mmHg 43%
    20:00 +19°C° 0 mm 2 mps 683 mmHg 51%
    21:00 +18°C° 0 mm 1 mps 683 mmHg 59%
    22:00 +16°C° 0 mm 1 mps 683 mmHg 57%
    23:00 +16°C° 0 mm 1 mps 683 mmHg 56%

    29 May, Monday

    Time Temperature Precipitation Wind Pressure Humidity
    00:00 +16°C° 0 mm 1 mps 683 mmHg 54%
    01:00 +15°C° 0 mm 1 mps 683 mmHg 56%
    02:00 +15°C° 0 mm 1 mps 684 mmHg 59%
    03:00 +14°C° 0 mm 1 mps 684 mmHg 61%
    04:00 +15°C° 0 mm 1 mps 684 mmHg 58%
    05:00 +18°C° 0 mm 1 mps 685 mmHg 55%
    06:00 +19°C° 0 mm 1 mps 686 mmHg 52%
    07:00 +21°C° 0 mm 1 mps 686 mmHg 47%
    08:00 +23°C° 0 mm 2 mps 687 mmHg 42%
    09:00 +25°C° 0 mm 2 mps 687 mmHg 37%
    10:00 +25°C° 0 mm 2 mps 687 mmHg 35%
    11:00 +26°C° 0 mm 3 mps 687 mmHg 33%
    12:00 +27°C° 0 mm 3 mps 687 mmHg 32%
    13:00 +27°C° 0.1 mm 3 mps 687 mmHg 34%
    14:00 +27°C° 0.1 mm 3 mps 686 mmHg 36%
    15:00 +27°C° 0.1 mm 3 mps 686 mmHg 38%
    16:00 +25°C° 0.1 mm 3 mps 686 mmHg 44%
    17:00 +24°C° 0.1 mm 3 mps 686 mmHg 51%
    18:00 +21°C° 0.1 mm 3 mps 686 mmHg 58%
    19:00 +19°C° 0.1 mm 3 mps 686 mmHg 68%
    20:00 +17°C° 0.1 mm 2 mps 686 mmHg 78%
    21:00 +15°C° 0.1 mm 2 mps 687 mmHg 88%
    22:00 +15°C° 0 mm 2 mps 687 mmHg 89%
    23:00 +14°C° 0 mm 2 mps 687 mmHg 90%

    30 May, Tuesday

    Time Temperature Precipitation Wind Pressure Humidity
    00:00 +14°C° 0 mm 2 mps 686 mmHg 91%
    01:00 +13°C° 0 mm 1 mps 686 mmHg 91%
    02:00 +13°C° 0 mm 1 mps 686 mmHg 91%
    03:00 +12°C° 0 mm 1 mps 686 mmHg 91%
    04:00 +13°C° 0 mm 1 mps 686 mmHg 86%
    05:00 +14°C° 0 mm 1 mps 686 mmHg 82%
    06:00 +15°C° 0 mm 1 mps 686 mmHg 77%
    07:00 +18°C° 0 mm 1 mps 687 mmHg 66%
    08:00 +20°C° 0 mm 2 mps 687 mmHg 56%
    09:00 +23°C° 0 mm 2 mps 687 mmHg 45%
    10:00 +24°C° 0 mm 2 mps 686 mmHg 41%
    11:00 +26°C° 0 mm 2 mps 686 mmHg 36%
    12:00 +28°C° 0 mm 3 mps 686 mmHg 32%
    13:00 +28°C° 0 mm 3 mps 685 mmHg 31%
    14:00 +28°C° 0 mm 3 mps 685 mmHg 31%
    15:00 +29°C° 0 mm 3 mps 684 mmHg 30%
    16:00 +27°C° 0 mm 3 mps 684 mmHg 34%
    17:00 +26°C° 0 mm 2 mps 684 mmHg 38%
    18:00 +25°C° 0 mm 2 mps 684 mmHg 42%
    19:00 +22°C° 0 mm 1 mps 684 mmHg 51%
    20:00 +19°C° 0 mm 1 mps 684 mmHg 59%
    21:00 +15°C° 0 mm 1 mps 684 mmHg 68%
    22:00 +15°C° 0 mm 1 mps 684 mmHg 64%
    23:00 +15°C° 0 mm 1 mps 684 mmHg 59%

    31 May, Wednesday

    Time Temperature Precipitation Wind Pressure Humidity
    00:00 +15°C° 0 mm 1 mps 684 mmHg 55%
    01:00 +15°C° 0 mm 1 mps 683 mmHg 53%
    02:00 +15°C° 0 mm 1 mps 683 mmHg 51%
    03:00 +14°C° 0 mm 1 mps 683 mmHg 49%
    04:00 +16°C° 0 mm 1 mps 683 mmHg 47%
    05:00 +18°C° 0 mm 1 mps 684 mmHg 44%
    06:00 +20°C° 0 mm 1 mps 684 mmHg 42%
    07:00 +22°C° 0 mm 1 mps 684 mmHg 36%
    08:00 +25°C° 0 mm 1 mps 685 mmHg 29%
    09:00 +28°C° 0 mm 2 mps 685 mmHg 23%
    10:00 +29°C° 0 mm 2 mps 685 mmHg 22%
    11:00 +30°C° 0 mm 2 mps 684 mmHg 21%
    12:00 +31°C° 0 mm 3 mps 684 mmHg 21%
    13:00 +31°C° 0 mm 3 mps 684 mmHg 21%
    14:00 +31°C° 0 mm 3 mps 683 mmHg 22%
    15:00 +31°C° 0 mm 3 mps 683 mmHg 23%
    16:00 +29°C° 0 mm 3 mps 682 mmHg 28%
    17:00 +28°C° 0 mm 2 mps 682 mmHg 33%
    18:00 +26°C° 0 mm 2 mps 682 mmHg 37%
    19:00 +23°C° 0 mm 2 mps 681 mmHg 50%
    20:00 +21°C° 0 mm 1 mps 681 mmHg 62%
    21:00 +18°C° 0 mm 1 mps 681 mmHg 74%
    22:00 +16°C° 0 mm 1 mps 680 mmHg 76%
    23:00 +16°C° 0 mm 1 mps 680 mmHg 77%
    Show more